Regional Weather Roundup
Issued by NWS New Orleans/Baton Rouge, LA

Home | Current Version | Previous Version | Text Only | Print | Product List | Glossary On
Versions: 1 2 3 4 5 6 7 8 9 10 11 12 13 14 15 16 17 18 19 20 21 22 23 24 25 26 27 28 29 30 31 32 33 34 35 36 37 38 39 40 41 42 43 44 45 46 47 48 49 50
000
ASUS44 KLIX 291010
RWRLIX
NEW ORLEANS REGIONAL WEATHER ROUNDUP
NATIONAL WEATHER SERVICE NEW ORLEANS LA
400 AM CST THU JAN 29 2015

NOTE: "FAIR" INDICATES FEW OR NO CLOUDS BELOW 12,000 FEET WITH NO
      SIGNIFICANT WEATHER AND/OR OBSTRUCTIONS TO VISIBILITY.
      SKY/WX - SKY CONDITION AND SIGNIFICANT WEATHER.
      TMP - AIR TEMPERATURE.     DP    - DEWPOINT TEMPERATURE.
      RH  - RELATIVE HUMIDITY.   PRES  - PRESSURE.
      HI  - HEAT INDEX.          WCI   - WIND CHILL INDEX.

*  THESE STATIONS ARE NOT NWS OR FAA STATIONS AND ARE NOT UNDER
   NWS QUALITY CONTROL.

LAZ038-040-048-061>063-065>067-069-291100-
SOUTHEAST LOUISIANA

CITY           SKY/WX    TMP DP  RH WIND       PRES   REMARKS
N.O. AUDUBON   NOT AVBL
N.O. INTL ARPT PTCLDY    48  43  82 CALM      30.22F
N.O. LAKEFRONT CLEAR     50  46  86 SE6       30.23F
N.O. DOWNTOWN* NOT AVBL
SLIDELL        CLEAR     38  36  92 CALM      30.22F
BATON ROUGE    CLEAR     41  38  89 E6        30.21F
BOOTHVILLE     CLEAR     49  46  90 E3        30.25R
BELLE CHASSE     N/A     41  37  87 CALM      30.23S
BOGALUSA*        N/A     37  35  90 CALM      30.25R
GALLIANO*      CLOUDY    42  41  98 MISG      30.24S
NEW ROADS*       N/A     45  44  95 SE5       30.20F
GONZALES*        N/A     44  44 100 CALM      30.22S
HAMMOND*       CLEAR     39  37  93 CALM      30.25R
HOUMA*         FOG       41  41 100 CALM      30.23S VSB 1/4
PORT FOURCHON* SUNNY     63  57  82 SE5       30.26R

$$

MSZ070-080>082-291100-
SOUTHERN MISSISSIPPI

CITY           SKY/WX    TMP DP  RH WIND       PRES   REMARKS
MCCOMB         CLEAR     38  36  92 SE6       30.20F WCI  33
GULFPORT       CLEAR     41  39  93 CALM      30.24S
BILOXI         CLEAR     46  46 100 E2        30.23F FOG
PASCAGOULA     CLEAR     37  36  96 CALM      30.25F

$$

COASTAL OBSERVATIONS
LAKE AND NEARSHORE STATIONS

STATION/POSITION TIME  TEMP    WIND        PRES    WAVE
                       AIR SEA DIR/SP/G            HT/PER
                 (UTC) (F)     (DEG/KT/KT) (MB)    (FT/S)
PASCAGOULA       1000   55     130/  2/  5 1023.8
WAVELAND YACHT   1000   51     160/  5/  5 1022.6
GRAND ISLE       1000   62 63  150/  2/  4 1024.1
SOUTHWEST PASS   1000   53 45  100/  3/  5 1024.2
NEW CANAL        1000   50 54  170/  2/  3 1023.7
SHELL BEACH      1000   54 56  120/  8/  9 1023.4

OFFSHORE STATIONS

STATION/POSITION TIME  TEMP    WIND        PRES    WAVE
                       AIR SEA DIR/SP/G            HT/PER
                 (UTC) (F)     (DEG/KT/KT) (MB)    (FT/S)
64 S DAUPHIN ISL 0920   63 68  150/ 10/ 14 1024.3    2/ 4

$$



USA.gov is the U.S. government's official web portal to all federal, state and local government web resources and services.